N0OQA Weather Reports


Display with metric or nautical units.
time (UTC)temp
F
wind
direction
speed
MPH
gust
MPH
rain 1hr
in
rain 24hr
in
rain mn
in
humidity
%
barometer
mb
20260507131913 37 0 0.0 0.0 0.00 0.00 0.00 83 1015.2
20260507131413 37 0 0.0 0.0 0.00 0.00 0.00 86 1015.2
20260507130913 36 0 0.0 0.0 0.00 0.00 0.00 88 1015.2
20260507130412 35 0 0.0 0.0 0.00 0.00 0.00 90 1015.3
20260507125912 35 0 0.0 0.0 0.00 0.00 0.00 91 1015.2
20260507125412 34 0 0.0 0.0 0.00 0.00 0.00 92 1015.3
20260507124912 33 0 0.0 0.0 0.00 0.00 0.00 94 1015.3
20260507124411 32 0 0.0 0.0 0.00 0.00 0.00 95 1015.3
20260507123911 32 0 0.0 0.0 0.00 0.00 0.00 96 1015.3
20260507123411 31 0 0.0 0.0 0.00 0.00 0.00 97 1015.4
20260507122410 30 0 0.0 0.0 0.00 0.00 0.00 95 1012.3
20260507120902 30 0 0.0 0.0 0.00 0.00 0.00 96 1015.2
20260507120401 30 0 0.0 0.0 0.00 0.00 0.00 96 1015.2
20260507115901 30 0 0.0 0.0 0.00 0.00 0.00 96 1015.2
20260507115401 30 0 0.0 0.0 0.00 0.00 0.00 96 1015.3
20260507114901 30 0 0.0 0.0 0.00 0.00 0.00 96 1015.1
20260507114400 30 0 0.0 0.0 0.00 0.00 0.00 95 1015.2
20260507113900 30 0 0.0 0.0 0.00 0.00 0.00 95 1015.2
20260507113400 29 0 0.0 0.0 0.00 0.00 0.00 95 1015.3
20260507112900 29 0 0.0 0.0 0.00 0.00 0.00 94 1015.4
20260507111859 30 0 0.0 0.0 0.00 0.00 0.00 94 1015.4
20260507111359 30 0 0.0 0.0 0.00 0.00 0.00 94 1015.3
20260507110858 30 0 0.0 0.0 0.00 0.00 0.00 94 1015.3
20260507110358 30 0 0.0 0.0 0.00 0.00 0.00 94 1015.2
20260507105357 30 0 0.0 0.0 0.00 0.00 0.00 93 1015.3
20260507104857 30 0 0.0 0.0 0.00 0.00 0.00 93 1015.3
20260507104357 30 0 0.0 0.0 0.00 0.00 0.00 92 1015.3
20260507103857 31 0 0.0 0.0 0.00 0.00 0.00 92 1015.4
20260507103356 31 0 0.0 0.0 0.00 0.00 0.00 92 1015.4
20260507102856 31 0 0.0 0.0 0.00 0.00 0.00 92 1015.4
20260507102356 31 0 0.0 0.0 0.00 0.00 0.00 92 1015.5
20260507101855 32 0 0.0 0.0 0.00 0.00 0.00 92 1015.4
20260507101355 32 0 0.0 0.0 0.00 0.00 0.00 91 1015.4
20260507100855 32 0 0.0 0.0 0.00 0.00 0.00 90 1015.4
20260507100355 33 0 0.0 0.0 0.00 0.00 0.00 90 1015.4
20260507095854 33 0 0.0 0.0 0.00 0.00 0.00 89 1015.4
20260507095354 33 0 0.0 0.0 0.00 0.00 0.00 87 1015.4
20260507094854 34 0 0.0 0.0 0.00 0.00 0.00 86 1015.3
20260507094353 34 0 0.0 0.0 0.00 0.00 0.00 86 1015.3
20260507093853 34 0 0.0 0.0 0.00 0.00 0.00 86 1015.3
20260507093353 34 0 0.0 0.0 0.00 0.00 0.00 86 1015.4
20260507092853 34 0 0.0 0.0 0.00 0.00 0.00 86 1015.4
20260507092352 34 0 0.0 0.0 0.00 0.00 0.00 87 1015.4
20260507091852 34 0 0.0 0.0 0.00 0.00 0.00 87 1015.3
20260507091352 33 0 0.0 0.0 0.00 0.00 0.00 88 1015.3
20260507090851 33 0 0.0 0.0 0.00 0.00 0.00 88 1015.4
20260507090351 33 0 0.0 0.0 0.00 0.00 0.00 89 1015.4
20260507085851 32 0 0.0 0.0 0.00 0.00 0.00 89 1015.4
20260507085350 32 0 0.0 0.0 0.00 0.00 0.00 90 1015.4
20260507084850 32 0 0.0 0.0 0.00 0.00 0.00 90 1015.4
20260507083850 31 0 0.0 0.0 0.00 0.00 0.00 89 1015.4
20260507083349 31 0 0.0 0.0 0.00 0.00 0.00 89 1015.4
20260507082849 31 0 0.0 0.0 0.00 0.00 0.00 89 1015.4
20260507082349 31 0 0.0 0.0 0.00 0.00 0.00 88 1015.4
20260507081848 31 0 0.0 0.0 0.00 0.00 0.00 88 1015.4
20260507081348 31 0 0.0 0.0 0.00 0.00 0.00 88 1015.4
20260507080848 31 0 0.0 0.0 0.00 0.00 0.00 87 1015.4
20260507080348 31 0 0.0 0.0 0.00 0.00 0.00 87 1015.4
20260507075847 31 0 0.0 0.0 0.00 0.00 0.00 86 1015.4
20260507075347 31 0 0.0 0.0 0.00 0.00 0.00 85 1015.3
20260507074847 31 0 0.0 0.0 0.00 0.00 0.00 85 1015.3
20260507074347 31 0 0.0 0.0 0.00 0.00 0.00 84 1015.4
20260507073846 32 0 0.0 0.0 0.00 0.00 0.00 84 1015.4
20260507073346 32 0 0.0 0.0 0.00 0.00 0.00 83 1015.4
20260507062842 34 0 0.0 0.0 0.00 0.00 0.00 76 1016.0
20260507055340 36 0 0.0 0.0 0.00 0.00 0.00 71 1016.4
20260507053839 37 0 0.0 0.0 0.00 0.00 0.00 69 1016.4
20260507052839 38 0 0.0 0.0 0.00 0.00 0.00 69 1016.4
20260507051838 38 0 0.0 0.0 0.00 0.00 0.00 67 1016.5
20260507044836 39 0 0.0 0.0 0.00 0.00 0.00 66 1016.7
20260507043836 39 0 0.0 0.0 0.00 0.00 0.00 65 1016.7
20260507043336 39 0 0.0 0.0 0.00 0.00 0.00 65 1016.7
20260507034333 40 0 0.0 0.0 0.00 0.00 0.00 64 1016.9
20260507032832 40 0 0.0 0.0 0.00 0.00 0.00 64 1017.0
20260507012319 44 280 7.0 10.0 0.00 0.00 0.00 54 1016.9
20260507001815 44 301 9.0 14.0 0.00 0.00 0.00 52 1017.2
20260506233812 45 305 8.0 10.0 0.00 0.00 0.00 52 1017.3
20260506155744 40 307 11.0 16.0 0.00 0.00 0.00 62 1019.2
20260506143239 38 315 13.0 18.0 0.00 0.00 0.00 65 1019.1
20260506140738 37 316 13.0 19.0 0.00 0.00 0.00 67 1018.8